STARLINK-3048, 49148

Orbit data source: Space-Track

STARLINK-3048, 49148 is a payload satellite owned by SpaceX/Seattle (US) in LEO that was launched on Tue, 14 Sep 2021 UTC via an FALCON 9 launch vehicle from the Air Force Western Test Range (AFWTR). Payload-class satellites include a variety of spacecraft equipped with specific instruments for various scientific and technological missions. These include communications satellites like Starlink; space stations such as the ISS; scientific satellites like the Hubble; Earth observation satellites from companies like Planet Labs, Umbra, and HawkEye 360; GPS; miniature CubeSats for education and research; and military/defense satellites.

Loading next visibility...
Identifier
49148, 2021-082U
Orbit
LEO
Country
Flag of USUS
Related business
Manufacturer
SpaceX/Seattle
Mission
Operational Commercial Communications
Bus & Motor
STARLINK, Unknown motor
Mass
297 kg wet, ~275 kg dry
Launch date (UTC)
2021-09-14 (4 years ago)
Launch vehicle
FALCON 9
Launch site
Air Force Western Test Range (AFWTR)
Object type
Payload
Rocket body
Debris
Shape & HBR
Box + 1 Pan, 10.1 m
Radar Cross Section
13.562 m², Large (>1 m²)

Expand to show TLE details & history
Last TLE update: 13 hours ago

TLE from 13 hours ago
0 STARLINK-3048
1 49148U 21082U   25310.75941772  .00001840  00000-0  16522-3 0  9994
2 49148  70.0062 224.7870 0002282 229.2518 130.8443 14.97543892228047
Epoch: 2025-11-06T18:13Z
TLE epoch observation values (Epoch: 2025-11-06T18:13:33.691Z)
Latitude
0.00002°
Longitude
-94.8165°
Altitude
577.949 km
Speed
7.571 km/s
True Right ascension
14h 59m 08s
True Declination
0° 00' 00"
Sunlit
Object was in daylight at epoch
Visualization orbit readout
Latitude
Unknown
Longitude
Unknown
Altitude
Unknown
Speed
Unknown
Apparent Right ascension
Unknown
Apparent Declination
Unknown
Sunlit
N/A
Visualization observer readout
Local Sidereal Time
03:10:34
Azimuth
Unknown
Elevation
Unknown
Doppler factor
Unknown
Orbital elements
Apogee altitude
574.022 km
Perigee altitude
570.85 km
Semi-major axis
6,950.573 km
Eccentricity
0.00023
Inclination
70.0062°
RAAN
224.787°
Arg. of periapsis
229.2518°
True anomaly
130.86408°
Mean anomaly
130.8443°
Eccentric anomaly
130.85419°
Mean motion
3.74552 °/min
Orbital period
96.11 mins
BSTAR
0.00016522
Loading maneuver chart data...
Computing Atmospheric mass density...

Documentation

Showing up to 5 results
|